Regional Weather Roundup
Issued by NWS Northern Indiana

Home | Current Version | Previous Version | Text Only | Print | Product List | Glossary Off
Versions: 1 2 3 4 5 6 7 8 9 10 11 12 13 14 15 16 17 18 19 20 21 22 23 24 25 26 27 28 29 30 31 32 33 34 35 36 37 38 39 40 41 42 43 44 45 46 47 48 49 50

000
ASUS43 KIWX 270010
RWRIWX

KIWX WEATHER ROUNDUP
NATIONAL WEATHER SERVICE NORTHERN INDIANA
800 PM EDT TUE AUG 26 2014

NOTE: "FAIR" INDICATES FEW OR NO CLOUDS BELOW 12,000 FEET WITH NO
SIGNIFICANT WEATHER AND/OR OBSTRUCTIONS TO VISIBILITY.

* THESE STATIONS ARE NOT UNDER NWS QUALITY CONTROL. THEY ALSO MAY NOT
  REPORT WEATHER SUCH AS PRECIPITATION OR FOG.

INZ001>027-270100-
NORTHERN INDIANA

CITY           SKY/WX    TMP DP  RH WIND       PRES   REMARKS
GARY*          PTCLDY    75  70  83 NE6       30.08R
VALPARAISO     CLEAR     76  71  85 CALM      30.07F
6HR MIN TEMP:  69; 6HR MAX TEMP:  79; 6HR PCP: TRACE;

MICHIGAN CITY* MOCLDY    70  70 100 NE6       30.08S
LAPORTE*       CLEAR     74  74  98 N6        30.08F
6HR MIN TEMP:  69; 6HR MAX TEMP:  77; 6HR PCP:  0.01;

KNOX*          CLEAR     76  71  84 NE3       30.07R
6HR MIN TEMP:  41; 6HR MAX TEMP:  88;

SOUTH BEND     PTCLDY    76  70  82 NW5       30.08S
6HR MIN TEMP:  70; 6HR MAX TEMP:  78; 6HR PCP:  0.06;

GOSHEN         PTCLDY    76  71  85 S3        30.09R
6HR MIN TEMP:  72; 6HR MAX TEMP:  78; 6HR PCP:  0.02;

MONTICELLO*    PTCLDY    75  69  81 CALM      30.05S
6HR MIN TEMP:  68; 6HR MAX TEMP:  86; 6HR PCP:  1.03;

LOGANSPORT*    MOCLDY    72  68  88 CALM      30.07F
ROCHESTER*     PTCLDY    75  72  88 CALM      30.08S
WARSAW*        MOCLDY    73  68  83 CALM      30.08F
ANGOLA*        PTCLDY    75  72  88 W3        30.08R
FORT WAYNE     CLOUDY    77  70  79 CALM      30.09R
6HR MIN TEMP:  76; 6HR MAX TEMP:  86;

HUNTINGTON*    CLOUDY    75  70  82 CALM      30.07S
6HR MIN TEMP:  75; 6HR MAX TEMP:  82;

PERU/GRISSOM   MOCLDY    74  74 100 E2        30.07F
6HR MIN TEMP:  73; 6HR MAX TEMP:  86; 6HR PCP:  0.03;

MARION*        CLOUDY    73  69  86 CALM      30.09F
6HR MIN TEMP:  40; 6HR MAX TEMP:  88;


$$
INZ028>050-270100-
CENTRAL INDIANA

CITY           SKY/WX    TMP DP  RH WIND       PRES   REMARKS
LAFAYETTE      MOCLDY    73  69  87 CALM      30.05S
6HR MIN TEMP:  70; 6HR MAX TEMP:  87; 6HR PCP:  0.14;

KOKOMO*        CLOUDY    73  70  88 SE5       30.07F
6HR MIN TEMP:  73; 6HR MAX TEMP:  84;

MUNCIE*        CLOUDY    77  70  79 N3        30.08R
6HR MIN TEMP:  77; 6HR MAX TEMP:  88;

INDIANAPOLIS   MOCLDY    76  69  79 CALM      30.06F
6HR MIN TEMP:  75; 6HR MAX TEMP:  93; 6HR PCP:  0.26;


$$
MIZ043>046-050>051-056>058-064>065-071>073-077>080-270100-
SOUTHWEST LOWER MICHIGAN

CITY           SKY/WX    TMP DP  RH WIND       PRES   REMARKS
BATTLE CREEK   MOCLDY    74  69  85 W3        30.09R
6HR MIN TEMP:  70; 6HR MAX TEMP:  75; 6HR PCP:  0.17;

BENTON HARBOR  CLOUDY    69  66  90 VRB3      30.08F
6HR MIN TEMP:  68; 6HR MAX TEMP:  75; 6HR PCP: TRACE;

COLDWATER*     MOCLDY    75  71  89 W6        30.08R
6HR MIN TEMP:  74; 6HR MAX TEMP:  79;

HILLSDALE*     MOCLDY    77  74  89 CALM      30.08R
HOLLAND        CLEAR     71  62  73 NW6       30.09S
6HR MIN TEMP:  67; 6HR MAX TEMP:  73; 6HR PCP:  0.31;

GRAND RAPIDS   PTCLDY    72  66  81 W9        30.07F
6HR MIN TEMP:  69; 6HR MAX TEMP:  78; 6HR PCP:  0.48;

KALAMAZOO      PTCLDY    75  69  81 W6        30.09R
6HR MIN TEMP:  70; 6HR MAX TEMP:  81; 6HR PCP:  0.09;

STURGIS*         N/A     73  72  94 CALM      30.08S
THREE RIVERS*  FAIR      75  71  86 CALM      30.09R

$$
OHZ001>008-015>018-024>025-270100-
NORTHWEST OHIO

CITY           SKY/WX    TMP DP  RH WIND       PRES   REMARKS
WAUSEON*       FAIR      77  73  88 CALM      30.06R
DEFIANCE       CLOUDY    78  72  81 CALM      30.06F
6HR MIN TEMP:  78; 6HR MAX TEMP:  87; 6HR PCP:  0.01;

FINDLAY        CLOUDY    83  70  64 NE5       30.05R
6HR MIN TEMP:  83; 6HR MAX TEMP:  90;

TOLEDO EXPRESS CLOUDY    78  70  76 S5        30.05R
6HR MIN TEMP:  78; 6HR MAX TEMP:  90;

TOLEDO METCALF MOCLDY    80  69  69 SE6       30.05S
6HR MIN TEMP:  79; 6HR MAX TEMP:  91;

LIMA           CLOUDY    76  70  82 CALM      30.06F
6HR MIN TEMP:  76; 6HR MAX TEMP:  88; 6HR PCP: TRACE;


$$
&&



USA.gov is the U.S. government's official web portal to all federal, state and local government web resources and services.